Location: Bazentin
(50.0318°N, 2.7625°E)
Time: 17:33:34
(UTC+00:00)

Daily predictions for brighter satellites

Satellite Brightness Start Highest point End
(mag) Time Altitude Azimuth Time Altitude Azimuth Time Altitude Azimuth
CZ-2D R/B 3.9 17:11:36 10° S 17:15:19 60° W 17:19:03 10° NNW
CORIOLIS 4.3 17:10:15 10° SSE 17:15:41 86° WSW 17:21:07 10° NNW
ADEOS 3.6 17:13:27 10° SSE 17:18:40 81° ENE 17:23:55 10° NNW
Cosmos 1340 Rocket 3.2 17:15:43 10° SSE 17:19:22 41° E 17:23:05 10° NNE
Cosmos 2266 Rocket 4.0 17:13:52 10° N 17:20:13 73° ENE 17:26:23 10° SSE
Cosmos 1980 Rocket 2.3 17:15:57 10° SSW 17:21:38 85° WNW 17:27:23 10° NNE
Cosmos 1763 Rocket 3.9 17:17:23 10° NNW 17:22:16 39° ENE 17:27:03 10° SE
Cosmos 2369 3.8 17:16:45 10° SSW 17:22:24 84° WNW 17:28:09 10° NNE
USA 215 3.7 17:17:12 10° SE 17:23:43 67° SW 17:30:17 10° WNW
Okean O Rocket 3.2 17:22:15 10° E 17:24:46 15° ENE 17:27:16 10° NNE
ATLAS CENTAUR R/B 1.7 17:20:29 10° SW 17:25:12 83° SE 17:29:46 10° NE
ATLAS 2AS CENTAUR R/B 2.8 17:18:22 10° NW 17:25:29 64° NE 17:32:08 10° ESE
Cosmos 2251 Rocket 3.6 17:21:34 10° SSW 17:26:54 75° ESE 17:32:17 10° NNE
Cosmos 1697 Rocket 3.7 17:22:08 10° SW 17:27:33 45° NW 17:33:00 10° NNE
Radarsat Rocket 4.1 17:21:59 10° SSE 17:28:01 76° ENE 17:34:49 10° NNW
CZ-2C R/B 4.0 17:23:19 10° N 17:28:30 43° WNW 17:33:44 10° SW
SMAP 3.9 17:26:03 10° S 17:30:37 57° W 17:35:14 10° NNW
COBE Rocket 4.2 17:26:16 10° S 17:30:59 69° W 17:35:39 10° NNW
DELTA 2 DEB (DPAF) 4.1 17:28:53 10° NNE 17:33:16 66° ESE 17:37:38 10° S
Cosmos 2263 Rocket 3.0 17:28:11 10° NW 17:33:38 56° WSW 17:39:02 10° S
SL-08 RB Rocket 4.4 17:30:58 10° S 17:35:33 61° W 17:40:12 10° NNW
Cosmos 540 Rocket 4.0 17:34:40 10° N 17:39:26 36° NE 17:44:09 10° ESE
Cosmos 1461 4.5 17:39:17 10° SSE 17:42:16 19° ESE 17:44:27 13° ENE
SKYMED 2 3.8 17:39:25 10° NNE 17:43:38 47° E 17:47:49 10° S
Lacrosse 5 2.9 17:39:29 10° S 17:43:52 30° SE 17:47:30 14° ENE
SL-08 R/B 3.5 17:42:04 10° NNE 17:47:02 86° WNW 17:51:59 10° SSW
Cosmos 2058 Rocket 4.2 17:43:42 10° NNE 17:47:12 23° ENE 17:50:41 10° ESE
PSLV R/B 4.1 17:51:05 10° SE 17:54:29 38° ENE 17:57:58 10° N
Cosmos 1607 4.1 17:48:55 10° SW 17:55:03 76° NW 18:01:18 10° NE
YAOGAN 1 3.0 17:52:20 10° SE 17:56:22 40° ENE 18:00:25 10° N
Cosmos 676 Rocket 4.5 17:52:40 10° S 17:57:34 40° ESE 18:02:28 10° NE
Cosmos 1328 3.7 17:54:54 10° S 17:58:53 88° ESE 18:02:52 10° N
Cosmos 407 Rocket 3.5 17:53:56 10° SSW 17:59:05 84° WNW 18:04:16 10° NNE
DMSP B5D2-2 4.2 17:56:20 10° NNE 18:01:39 85° WNW 18:06:55 10° SSW
BREEZE M DEB (TANK) 4.4 17:56:28 10° WNW 18:01:56 35° SW 18:04:32 10° SSE
Lacrosse 5 rocket 1.4 17:59:00 10° NW 18:02:28 46° NNE 18:04:27 22° E
Meteor 1-11 4.4 17:57:01 10° S 18:02:39 53° E 18:08:17 10° NNE
USA 281 4.4 17:57:49 10° NNE 18:03:51 40° NW 18:09:52 10° WSW
Cosmos 1844 Rocket 2.6 17:59:04 10° NNW 18:04:38 64° ENE 18:10:10 10° SE
APEX 4.2 18:00:38 10° SSW 18:06:42 76° ESE 18:12:17 10° NNE
CZ-4B DEB 4.2 18:01:19 10° SSE 18:06:46 86° ENE 18:12:17 10° NNW
Cosmos 1536 Rocket 3.9 18:02:48 10° SSW 18:07:06 68° WNW 18:11:27 10° N
CZ-4 R/B 2.1 18:04:05 10° SE 18:07:47 33° ENE 18:11:27 10° N
Meteor 2-12 Rocket 4.4 18:02:17 10° N 18:08:19 58° ENE 18:14:16 10° SSE
Nadezhda 2 Rocket 4.4 18:03:10 10° N 18:09:21 63° ENE 18:15:24 10° SSE
CZ-4B R/B 3.3 18:05:21 10° SE 18:10:32 53° ENE 18:15:50 10° N
Cosmos 1140 Rocket 4.0 18:05:29 10° SW 18:10:36 60° WNW 18:15:44 10° NNE
IGS 5A 4.3 18:15:33 26° E 18:16:17 27° ENE 18:19:47 10° N
Cosmos 1844 3.7 18:11:36 10° NNW 18:17:26 69° ENE 18:23:11 10° SE
CZ-4C R/B 3.1 18:13:31 10° NNE 18:17:27 86° ESE 18:21:08 10° SSW
MOS 1-B 4.3 18:12:04 10° SSE 18:17:47 65° ENE 18:23:33 10° NNW
Cosmos 1606 Rocket 3.4 18:13:39 10° N 18:17:59 88° ENE 18:22:19 10° S
Cosmos 1190 Rocket 4.0 18:12:41 10° SSW 18:18:00 90° ESE 18:23:20 10° NNE
RESURS DK-1 2.4 18:15:03 10° NNW 18:19:07 56° NE 18:21:55 19° SE
Cosmos 1408 3.2 18:15:53 10° SSW 18:19:13 52° WNW 18:22:36 10° N
ISS -1.5 18:18:09 10° W 18:20:55 23° SW 18:23:39 10° SSE
Cosmos 2228 4.0 18:17:41 10° NNW 18:21:46 48° W 18:25:49 10° SSW
Cosmos 1633 2.6 18:19:11 10° SSE 18:22:23 43° E 18:23:16 34° NE
Cosmos 2278 4.2 18:17:16 10° SW 18:22:53 61° WNW 18:28:33 10° NNE
Cosmos 1892 2.8 18:23:11 10° SSW 18:26:54 73° WNW 18:30:40 10° N
Cosmos 2360 Rocket 2.5 18:21:40 10° S 18:26:59 45° ESE 18:30:24 21° NE
Cosmos 2219 Rocket 3.4 18:23:47 10° SSE 18:27:04 21° ESE 18:27:04 21° ESE
Cosmos 1892 Rocket 3.5 18:26:47 10° S 18:31:06 57° E 18:35:25 10° NNE
COSMO-SKYMED 1 3.1 18:27:23 10° N 18:31:41 60° WNW 18:35:57 10° SSW
Cosmos 2333 Rocket 2.8 18:26:50 10° SSE 18:31:49 33° ESE 18:33:11 29° E
Cosmos 2278 Rocket 3.5 18:28:40 10° NNW 18:33:01 22° NE 18:33:32 22° NE
Cosmos 2322 Rocket 2.1 18:32:48 10° SSW 18:38:24 76° ESE 18:42:51 17° NNE
Cosmos 1825 2.1 18:36:40 10° SSW 18:40:21 83° W 18:44:03 10° N
Feng Yun 1-1 Rocket 4.2 18:35:05 10° SSE 18:40:34 62° ENE 18:45:57 10° N
DMSP B5D1-3 4.5 18:37:26 10° NNE 18:42:30 60° E 18:47:33 10° S
SL-4 R/B 1.7 18:39:14 10° W 18:42:45 67° N 18:43:14 58° NE
COSMOS 2455 4.2 18:38:10 10° W 18:43:35 33° NW 18:48:59 10° NNE
Cosmos 468 Rocket 4.5 18:40:09 10° NNW 18:45:16 61° WSW 18:50:19 10° S
Cosmos 1726 Rocket 4.1 18:46:15 10° NNW 18:50:30 57° W 18:54:43 10° S
BlueWalker 3 2.3 18:47:00 10° WNW 18:50:48 51° N 18:51:11 49° NNE
SL-16 R/B 2.5 18:46:43 10° SW 18:52:22 66° WNW 18:57:26 13° NNE
Cosmos 2333 4.4 18:48:34 10° S 18:53:53 46° ESE 18:54:40 43° E
In-Cosmos 22 Rocket 4.4 18:48:12 10° SSW 18:54:01 79° WNW 18:59:53 10° N
Cosmos 1954 Rocket 4.3 18:50:53 10° SW 18:56:06 66° WNW 19:00:56 12° NNE
Cosmos 1745 Rocket 3.9 18:50:02 10° N 18:56:19 70° ENE 19:02:29 10° SSE
ATLAS 5 CENTAUR R/B 3.7 18:55:06 10° NW 18:57:48 16° N 18:58:45 15° NNE
CSL-04 Debris 4.2 18:56:13 36° SE 18:58:11 57° ENE 19:03:29 10° N
Okean O Rocket 1.6 18:56:06 10° SSE 19:00:29 83° WSW 19:04:57 10° NNW
Okean-O 4.1 19:03:02 24° NNE 19:03:02 24° NNE 19:05:01 10° N
Cosmos 1386 Rocket 4.3 18:55:47 10° N 19:01:50 81° E 19:07:53 10° SSE
Cosmos 1814 Rocket 4.2 18:57:04 10° NNW 19:02:17 50° ENE 19:02:29 50° ENE
Cosmos 1340 2.7 18:58:39 10° NNW 19:02:20 74° W 19:02:56 58° SSW
ATLAS CENTAUR R/B 3.5 19:00:25 10° W 19:04:15 25° NNW 19:06:27 17° N
CSL-04 Rocket 3.6 19:04:36 52° ESE 19:05:25 58° ENE 19:10:43 10° N
Cosmos 1980 Rocket 4.3 19:02:10 10° W 19:06:30 22° NW 19:10:53 10° NNE
Cosmos 1850 Rocket 3.9 19:01:48 10° S 19:06:53 60° ESE 19:07:01 59° E
Lacrosse 4 Rocket 4.1 19:10:43 10° N 19:10:48 10° N 19:10:48 10° N
Cosmos 1741 Rocket 3.9 19:08:52 10° S 19:14:07 66° ESE 19:14:11 66° ESE
Cosmos 1869 4.3 19:10:29 10° NNW 19:14:12 45° W 19:17:57 10° SSW
Cosmos 1709 Rocket 3.8 19:08:50 10° N 19:14:58 63° ENE 19:16:27 49° SE
Cosmos 841 Rocket 3.7 19:10:41 10° NNW 19:15:57 70° WSW 19:19:10 24° S
ATLAS 2AS CENTAUR R/B 4.0 19:09:47 10° NW 19:16:03 37° WSW 19:22:01 10° S
Cosmos 1943 Rocket 3.9 19:13:42 10° N 19:16:34 18° NNE 19:16:34 18° NNE
Cosmos 1461 3.1 19:16:18 10° SW 19:20:36 70° NW 19:20:38 70° NW
Genesis I 4.5 19:18:24 10° SW 19:20:43 34° SSW 19:20:43 34° SSW
Cosmos 1553 Rocket 4.3 19:16:21 10° SSW 19:22:23 65° WNW 19:28:33 10° N
Cosmos 2058 Rocket 4.1 19:21:12 10° NNW 19:25:23 44° W 19:29:35 10° SSW
Cosmos 1417 Rocket 4.5 19:19:12 10° S 19:25:28 82° W 19:31:43 10° N
Lacrosse 5 1.8 19:21:24 10° WSW 19:26:31 77° NNW 19:26:44 75° N
Landsat 7 4.2 19:29:57 52° N 19:29:57 52° N 19:33:33 10° NNW
Gblst 52 Del rocket 4.0 19:30:54 10° W 19:36:23 82° NNW 19:36:23 82° NNW
Cosmos 883 Rocket 4.4 19:33:06 10° S 19:41:13 48° NNE 19:45:41 10° NNE
Lacrosse 5 rocket 3.1 19:37:55 10° WNW 19:39:53 26° W 19:39:53 26° W
CZ-4 R/B 3.4 19:39:07 10° SSW 19:42:41 28° W 19:46:13 10° NW
BREEZE-M DEB (TANK) 4.1 19:38:47 10° W 19:42:54 52° S 19:44:07 47° SSE
S3M 4.4 19:50:48 10° SSW 19:57:06 61° WNW 20:03:27 10° N
Resurs 01 Rocket 4.5 20:14:37 11° NNW 20:14:37 11° NNW 20:14:43 10° NNW
Cosmos 2360 Rocket 3.4 20:05:49 10° WSW 20:11:05 39° NW 20:12:13 35° NNW
Cosmos 2219 Rocket 3.4 20:05:49 10° SW 20:08:53 34° SW 20:08:53 34° SW
Cosmos 2333 Rocket 3.0 20:10:25 10° SW 20:15:16 47° WNW 20:15:16 47° WNW
Cosmos 2278 Rocket 3.4 20:12:15 10° NNW 20:15:25 35° NNW 20:15:25 35° NNW
Cosmos 2322 Rocket 4.0 20:18:24 10° W 20:23:03 26° NW 20:24:43 22° NNW
SL-16 R/B 4.5 20:33:44 10° WNW 20:37:36 18° NW 20:39:20 16° NNW
